Temp
63 63 62 62 62 62 62 61 61 62 63 62 62 62 62 62 62 61 67 79 79 80 81 78 78 78 76 70 74 72 55 53 58 60 66 73 71 75 76 71 73 73 69 70 71
62 62 62 62 62 62 62 61 61 62 62 62 62 62 62 62 60 65 78 81 81 81 78 76 73 75 67 69 69 62 54 58 66 67 67 71 71 73 70 69 67 66 70 71 71
62 62 61 62 61 62 61 61 61 62 61 61 62 62 62 61 63 76 81 81 81 81 82 81 80 75 66 67 67 65 57 64 67 70 71 69 71 74 68 67 69 64 65 68 68
62 61 61 61 62 61 61 61 61 61 60 61 61 62 62 58 63 78 81 81 81 80 80 79 75 67 63 62 68 60 67 67 67 71 71 69 72 70 70 73 74 70 69 69 67
61 61 61 60 60 61 60 60 60 60 60 61 62 62 56 59 71 79 81 81 78 80 78 77 71 67 63 65 66 63 64 67 68 69 70 72 69 69 70 73 73 72 70 68 67
61 61 60 60 60 61 60 59 58 58 60 60 62 63 55 60 79 79 77 77 78 78 77 76 74 72 66 66 63 68 66 65 67 66 69 65 67 69 71 73 71 70 68 68 67
60 60 60 60 60 60 59 58 58 58 59 61 63 64 59 70 80 78 77 74 76 78 74 78 79 71 67 64 71 69 61 63 63 64 63 66 65 65 71 72 69 69 68 69 69
60 60 60 60 59 59 58 57 57 58 60 62 64 58 61 77 76 78 74 73 75 75 79 78 77 70 66 69 67 63 61 52 62 62 63 61 55 67 72 70 66 68 69 69 69
60 60 60 59 59 58 56 57 59 61 62 63 55 55 64 78 75 78 79 76 75 74 77 86 74 64 65 59 54 58 50 54 57 64 64 60 58 67 71 70 66 67 68 69 68
59 59 59 59 58 57 56 58 63 62 63 66 68 58 69 74 76 78 76 81 76 75 75 71 63 57 55 53 48 53 52 56 55 61 63 60 59 67 70 68 67 68 68 68 67
59 58 58 58 57 56 53 54 58 57 56 64 65 69 74 77 81 76 78 78 74 71 62 63 58 55 57 59 62 59 58 56 60 65 61 59 60 65 70 68 64 67 67 67 67
58 58 58 57 57 56 51 56 66 67 62 67 68 70 75 75 73 75 80 72 68 62 63 60 57 64 66 63 63 61 58 56 61 65 61 59 59 64 68 69 68 66 67 67 68
58 58 57 56 56 52 51 63 66 65 58 68 68 69 72 75 72 72 78 71 65 61 61 58 65 72 68 62 60 59 59 58 59 62 62 59 54 58 65 67 67 69 69 70 68
58 58 56 55 51 55 59 64 65 68 54 62 63 73 73 74 69 80 78 75 66 64 63 61 68 70 66 62 61 53 66 67 60 55 48 59 44 53 58 61 64 68 67 69 69
58 57 55 55 52 58 67 62 61 68 46 68 66 78 71 71 70 73 78 74 66 65 63 63 63 63 63 64 66 60 67 63 61 54 50 52 48 52 55 56 62 64 67 69 71
57 56 54 51 50 58 62 60 67 56 48 65 70 68 67 67 69 71 73 74 72 65 62 65 69 67 67 69 68 68 62 59 54 51 45 49 51 53 53 58 62 65 69 70 70
55 53 52 59 63 60 61 66 54 48 65 63 61 64 63 63 65 66 67 64 60 52 52 62 64 67 70 62 63 61 51 42 42 42 43 51 50 55 63 65 65 65 68 70 72
53 52 53 59 57 60 65 62 44 59 57 64 63 61 63 65 63 65 62 59 61 58 51 51 53 64 69 67 60 56 52 45 40 39 44 52 47 56 66 68 68 70 71 71 69
52 52 53 60 59 58 64 50 51 54 63 64 62 55 56 62 62 61 60 60 64 63 57 48 54 67 69 69 68 57 53 56 46 42 43 47 54 63 63 64 65 65 68 69 70
50 56 65 65 62 65 59 49 53 60 65 62 53 57 52 58 57 57 58 64 65 67 65 57 52 62 69 68 64 63 64 52 47 42 39 45 48 51 62 62 64 65 65 67 69
55 62 68 64 65 62 52 51 58 66 67 62 57 56 57 57 59 56 60 66 69 65 66 58 54 64 63 60 60 58 54 50 51 47 43 41 47 59 62 64 64 66 68 67 68
52 57 68 67 59 45 50 53 60 65 68 63 62 59 56 59 55 56 61 64 70 67 61 60 52 53 60 63 66 64 58 53 50 47 43 45 49 64 63 67 67 67 69 69 69
50 50 63 65 50 47 51 58 62 63 62 62 61 59 60 56 52 56 60 70 70 65 61 60 51 46 53 55 59 59 57 50 50 47 45 45 50 64 63 65 66 67 68 68 69
51 53 53 53 48 47 47 52 56 65 62 62 60 60 57 55 52 54 58 66 68 68 68 67 50 53 51 56 61 55 59 55 54 47 46 49 54 60 63 65 65 66 68 68 68
48 43 46 43 47 45 45 51 54 54 60 60 57 59 54 47 51 52 56 60 65 65 62 62 54 50 55 59 60 62 61 58 55 53 55 57 55 63 62 62 64 67 68 69 68
45 44 45 43 44 46 45 45 51 54 54 54 53 59 56 48 51 50 53 51 56 61 56 54 54 54 54 61 59 58 61 62 60 57 58 57 58 63 62 65 65 66 67 68 68
45 47 46 44 44 43 43 47 52 54 57 60 58 55 55 57 60 60 58 58 57 53 55 52 49 50 51 55 57 50 58 59 60 62 61 56 63 62 62 65 65 65 67 68 68
MSLP
1015.42 1015.14 1014.89 1014.66 1014.48 1014.24 1014.03 1013.92 1013.73 1013.50 1013.22 1013.02 1012.87 1012.78 1012.69 1012.44 1012.06 1012.07 1010.89 1008.68 1008.73 1008.86 1009.29 1009.95 1010.24 1010.29 1010.65 1011.21 1011.54 1011.96 1012.57 1012.68 1012.15 1011.74 1011.03 1010.67 1010.36 1010.80 1011.15 1011.80 1012.19 1012.48 1012.91 1013.35 1014.11
1015.39 1015.10 1014.80 1014.55 1014.32 1014.07 1013.86 1013.71 1013.51 1013.33 1013.11 1012.96 1012.84 1012.76 1012.59 1012.38 1012.06 1010.85 1008.08 1008.06 1008.39 1008.62 1009.39 1009.84 1010.15 1010.52 1011.06 1011.47 1011.86 1012.42 1013.02 1012.44 1011.72 1011.40 1010.94 1010.91 1010.94 1010.84 1011.33 1012.08 1012.68 1013.04 1013.48 1013.86 1014.46
1015.32 1015.09 1014.85 1014.52 1014.24 1013.95 1013.73 1013.51 1013.32 1013.13 1013.02 1012.91 1012.79 1012.72 1012.50 1012.34 1011.51 1008.44 1007.17 1007.92 1008.33 1008.54 1008.96 1009.25 1009.61 1010.40 1011.10 1011.67 1012.16 1012.45 1012.62 1012.40 1011.69 1011.65 1011.09 1010.98 1011.06 1011.09 1011.26 1011.89 1012.29 1012.85 1013.76 1014.35 1014.91
1015.26 1015.00 1014.75 1014.46 1014.13 1013.88 1013.60 1013.34 1013.09 1012.96 1012.93 1012.84 1012.77 1012.63 1012.43 1012.22 1010.19 1007.48 1007.28 1007.67 1008.41 1008.75 1008.98 1009.16 1009.72 1010.53 1011.36 1011.80 1012.15 1012.47 1012.39 1012.42 1012.03 1011.68 1011.39 1011.37 1011.45 1011.11 1011.14 1011.28 1011.62 1012.96 1013.60 1014.27 1014.97
1015.29 1014.96 1014.68 1014.36 1014.07 1013.75 1013.49 1013.24 1013.04 1012.85 1012.76 1012.72 1012.63 1012.52 1012.31 1011.37 1008.79 1007.15 1006.94 1007.71 1008.47 1008.87 1008.89 1009.15 1009.80 1010.62 1011.33 1011.70 1012.17 1012.50 1012.62 1012.63 1012.31 1012.10 1011.92 1011.50 1011.47 1011.42 1011.41 1011.62 1012.08 1013.10 1013.91 1014.29 1014.77
1015.29 1014.86 1014.55 1014.25 1013.92 1013.57 1013.31 1013.13 1012.96 1012.82 1012.69 1012.63 1012.50 1012.42 1012.01 1010.12 1007.27 1007.30 1007.45 1008.09 1008.37 1008.67 1008.64 1009.09 1009.53 1010.25 1011.24 1011.84 1012.36 1012.42 1012.76 1012.95 1012.71 1012.60 1012.24 1011.99 1011.87 1011.65 1011.44 1011.85 1012.67 1013.37 1013.95 1014.48 1014.81
1015.19 1014.77 1014.40 1014.11 1013.79 1013.42 1013.14 1012.90 1012.73 1012.69 1012.62 1012.48 1012.40 1012.31 1011.39 1008.45 1007.44 1007.62 1007.88 1008.13 1008.32 1008.39 1008.74 1009.10 1009.37 1010.17 1011.33 1012.07 1012.32 1012.51 1012.99 1012.90 1013.02 1012.84 1012.81 1012.74 1012.07 1011.61 1011.64 1011.95 1012.73 1013.45 1013.91 1014.38 1014.64
1015.09 1014.67 1014.28 1013.95 1013.61 1013.22 1012.92 1012.67 1012.45 1012.43 1012.43 1012.43 1012.38 1012.13 1010.26 1007.69 1007.52 1007.79 1008.05 1008.32 1008.40 1008.49 1008.72 1009.08 1009.43 1010.68 1011.54 1012.04 1012.49 1012.78 1013.16 1013.40 1013.26 1013.58 1013.75 1013.78 1012.94 1011.92 1011.91 1012.20 1012.90 1013.45 1013.83 1014.14 1014.42
1014.89 1014.50 1014.13 1013.78 1013.45 1013.08 1012.72 1012.34 1012.05 1012.15 1012.26 1012.35 1012.35 1011.74 1009.21 1007.55 1007.54 1007.24 1007.59 1007.99 1008.42 1008.71 1008.83 1009.13 1009.70 1011.35 1012.02 1012.40 1012.88 1012.98 1013.07 1013.28 1013.57 1013.40 1013.54 1014.05 1012.96 1011.99 1011.83 1012.33 1012.91 1013.38 1013.68 1013.95 1014.31
1014.62 1014.25 1013.91 1013.56 1013.28 1013.01 1012.59 1012.16 1011.95 1012.05 1012.37 1012.34 1011.86 1011.40 1008.69 1007.20 1006.74 1006.89 1007.39 1007.70 1008.31 1008.76 1009.22 1009.65 1010.73 1011.61 1012.42 1012.62 1012.85 1012.66 1012.80 1012.76 1012.86 1013.01 1013.18 1013.24 1012.63 1011.97 1011.75 1012.08 1012.62 1013.01 1013.35 1013.68 1014.01
1014.29 1013.90 1013.55 1013.29 1013.12 1012.98 1012.71 1012.56 1012.52 1012.13 1011.74 1010.14 1009.53 1008.80 1007.44 1006.54 1006.23 1006.66 1007.03 1007.69 1008.30 1008.80 1009.62 1010.10 1011.04 1011.19 1011.57 1011.63 1011.52 1011.76 1012.07 1012.24 1012.10 1012.16 1012.64 1012.49 1012.33 1011.95 1011.76 1011.95 1012.29 1012.61 1012.93 1013.09 1013.25
1013.84 1013.48 1013.09 1012.88 1012.78 1012.79 1012.95 1011.82 1009.69 1009.02 1009.36 1008.60 1008.54 1008.19 1007.33 1006.66 1006.58 1006.64 1006.70 1007.55 1008.35 1009.11 1009.60 1010.41 1010.33 1010.06 1010.54 1010.96 1011.22 1011.30 1011.57 1011.69 1011.81 1012.03 1012.80 1012.54 1011.94 1011.53 1011.37 1011.16 1011.39 1011.82 1012.31 1012.42 1013.01
1013.38 1012.93 1012.54 1012.33 1012.30 1012.52 1011.77 1009.90 1008.75 1008.41 1008.85 1007.81 1007.53 1007.22 1006.75 1006.76 1006.73 1006.41 1006.67 1007.26 1008.10 1008.96 1009.42 1009.89 1009.40 1009.41 1009.80 1010.34 1010.84 1010.81 1010.87 1011.22 1011.51 1012.06 1012.52 1012.61 1012.00 1011.12 1010.60 1010.66 1010.82 1010.92 1011.11 1011.72 1012.22
1012.77 1012.35 1012.02 1011.93 1012.40 1011.33 1010.43 1008.58 1008.53 1008.56 1008.72 1007.47 1006.85 1005.75 1006.12 1006.18 1006.33 1005.72 1006.17 1006.96 1007.91 1008.50 1009.27 1009.40 1008.75 1008.65 1008.83 1009.49 1009.92 1010.59 1010.12 1010.54 1011.30 1012.26 1012.82 1012.76 1012.52 1011.05 1010.35 1010.20 1010.37 1010.58 1010.74 1010.95 1011.49
1012.11 1011.68 1011.49 1011.73 1011.06 1010.56 1008.90 1008.53 1008.42 1008.66 1008.26 1006.59 1005.98 1005.16 1005.51 1005.87 1005.88 1005.79 1005.79 1006.54 1007.53 1008.23 1009.07 1008.63 1008.27 1008.17 1008.13 1008.52 1009.24 1010.22 1009.83 1010.93 1011.97 1012.57 1013.11 1013.14 1013.12 1010.77 1010.48 1010.15 1009.64 1009.77 1009.99 1010.25 1010.50
1011.30 1010.97 1010.92 1011.29 1011.24 1009.01 1008.50 1008.54 1008.65 1008.90 1007.48 1005.98 1005.45 1005.44 1005.83 1005.72 1005.68 1005.96 1006.08 1006.48 1007.07 1008.01 1008.47 1008.41 1007.84 1007.72 1007.26 1007.70 1008.55 1009.57 1010.74 1011.84 1012.80 1013.36 1013.62 1012.82 1012.64 1010.56 1009.96 1008.71 1008.60 1008.86 1008.95 1009.45 1009.90
1010.48 1009.92 1010.45 1009.93 1009.43 1008.57 1008.60 1008.87 1009.36 1008.53 1007.15 1006.42 1005.80 1005.67 1005.83 1005.97 1005.98 1006.10 1006.55 1007.03 1007.64 1008.44 1008.90 1008.08 1007.64 1007.02 1006.95 1007.82 1008.82 1009.54 1011.27 1012.91 1013.74 1014.13 1013.74 1012.71 1012.34 1009.71 1008.24 1007.81 1007.46 1007.69 1007.96 1008.43 1009.24
1009.91 1009.63 1009.75 1009.48 1008.76 1008.70 1008.82 1009.14 1009.42 1008.34 1007.40 1006.44 1006.02 1005.95 1006.06 1006.04 1006.21 1006.51 1007.02 1007.67 1007.95 1008.38 1009.19 1008.71 1007.21 1006.33 1006.22 1006.69 1007.61 1009.30 1010.48 1011.85 1013.00 1013.97 1013.48 1012.78 1011.40 1008.38 1007.38 1006.95 1006.61 1006.71 1007.18 1008.06 1008.80
1009.51 1009.49 1009.60 1008.53 1008.50 1008.95 1009.03 1009.90 1009.29 1008.50 1007.59 1006.91 1006.30 1006.28 1006.30 1006.10 1006.30 1006.75 1007.20 1007.33 1007.39 1007.82 1008.64 1008.58 1007.37 1005.82 1005.47 1005.56 1006.31 1008.82 1009.84 1009.83 1011.95 1013.31 1013.24 1012.28 1010.39 1007.99 1007.07 1006.75 1006.84 1007.00 1007.43 1007.84 1008.33
1010.17 1009.62 1009.23 1008.25 1008.32 1008.45 1009.32 1010.10 1009.50 1008.54 1007.60 1007.05 1006.96 1006.51 1006.58 1006.51 1006.83 1007.13 1006.97 1006.31 1006.54 1006.49 1006.61 1007.86 1007.62 1005.97 1005.42 1005.42 1005.96 1006.69 1007.76 1009.73 1011.34 1012.51 1012.97 1012.19 1010.69 1008.62 1007.41 1007.00 1007.01 1007.30 1007.42 1007.74 1008.21
1010.11 1009.85 1009.02 1008.38 1008.40 1009.34 1010.67 1010.55 1009.47 1008.18 1007.81 1007.35 1007.09 1007.02 1006.94 1006.92 1006.87 1006.98 1006.68 1005.73 1005.59 1006.06 1006.57 1007.56 1007.96 1005.86 1005.79 1005.55 1005.74 1006.82 1007.62 1008.89 1010.23 1011.40 1011.99 1011.66 1010.25 1007.55 1006.94 1006.83 1006.97 1007.06 1007.20 1007.35 1007.84
1011.14 1010.66 1009.01 1008.31 1009.73 1011.58 1011.61 1010.91 1009.86 1008.64 1007.81 1007.53 1007.47 1007.64 1007.40 1007.12 1007.13 1007.07 1006.55 1005.81 1005.35 1005.79 1006.78 1007.03 1007.77 1007.33 1006.10 1005.31 1005.44 1005.96 1006.88 1008.01 1009.76 1011.30 1011.59 1010.76 1008.73 1006.68 1006.56 1006.41 1006.50 1006.65 1006.86 1006.98 1007.57
1012.77 1012.13 1009.62 1009.28 1011.61 1012.79 1012.24 1011.38 1010.46 1009.68 1009.04 1008.45 1008.31 1008.14 1007.93 1007.94 1007.91 1007.41 1006.78 1005.74 1005.74 1005.77 1006.07 1006.90 1007.64 1007.67 1006.53 1005.88 1005.44 1005.69 1006.39 1007.14 1008.22 1009.51 1010.51 1010.19 1008.15 1006.65 1006.29 1006.27 1006.15 1006.46 1006.63 1006.80 1007.41
1013.65 1013.65 1012.69 1012.47 1013.76 1013.78 1013.67 1012.75 1011.45 1010.38 1009.87 1009.46 1009.17 1008.69 1008.78 1008.84 1008.77 1008.42 1007.75 1006.65 1006.32 1006.24 1006.24 1006.22 1007.34 1007.18 1006.71 1005.54 1004.96 1005.39 1005.80 1006.80 1007.13 1008.79 1009.47 1008.81 1007.51 1006.46 1006.43 1005.85 1006.07 1006.20 1006.48 1006.56 1007.23
1014.96 1016.56 1016.42 1015.63 1015.28 1015.10 1014.55 1013.75 1012.74 1011.84 1010.95 1010.36 1010.03 1009.89 1009.83 1009.79 1009.68 1009.35 1008.85 1008.06 1007.00 1006.77 1006.71 1006.90 1007.32 1007.09 1006.03 1005.45 1005.27 1004.67 1004.93 1005.75 1006.57 1006.75 1007.22 1006.87 1006.95 1005.75 1005.55 1005.82 1005.75 1005.45 1005.93 1006.52 1007.09
1016.93 1017.53 1016.98 1016.72 1016.26 1015.68 1015.24 1014.72 1013.82 1013.02 1012.34 1011.44 1011.14 1010.69 1010.25 1010.24 1010.48 1010.48 1009.98 1009.34 1008.45 1007.49 1007.59 1007.75 1007.54 1007.16 1006.57 1005.30 1004.97 1004.92 1004.36 1004.70 1005.35 1005.65 1005.85 1005.83 1005.81 1004.82 1004.98 1005.28 1005.74 1005.80 1005.89 1006.27 1006.56
1018.11 1018.05 1017.79 1017.56 1016.99 1016.47 1016.08 1015.36 1014.47 1013.99 1012.60 1011.98 1011.82 1011.43 1010.86 1010.75 1010.75 1010.27 1010.13 1009.67 1009.16 1009.02 1008.62 1008.54 1008.34 1008.05 1007.03 1006.14 1005.31 1005.04 1004.21 1004.01 1004.28 1004.32 1004.39 1005.10 1004.35 1004.48 1005.01 1004.97 1005.25 1005.87 1006.10 1005.87 1006.39
Wind_Speed
12 12 11 10 9 8 8 7 7 7 8 9 10 9 9 10 10 2 6 9 7 13 9 8 1 2 1 3 2 3 4 2 4 5 2 9 4 2 5 5 2 3 4 7 13
13 13 12 11 10 8 8 8 8 8 8 9 10 9 9 9 2 6 9 7 8 15 7 9 7 6 1 2 2 4 1 4 2 5 4 4 4 1 4 2 3 8 11 13 11
13 13 12 11 11 9 9 9 8 8 8 9 9 8 8 6 2 7 9 12 15 12 7 5 6 6 3 2 1 2 2 2 5 3 5 0 5 5 8 4 6 8 11 11 9
14 13 13 12 11 10 10 9 9 8 8 8 8 8 8 2 4 2 7 13 12 7 3 4 4 4 3 3 1 1 2 3 5 0 2 0 6 3 6 1 9 12 14 10 10
14 13 13 13 12 11 10 9 9 9 8 7 7 6 2 0 8 3 7 13 8 8 5 5 4 4 3 2 3 0 2 4 5 4 6 3 4 3 4 8 13 12 11 10 9
15 14 13 12 12 11 10 10 9 8 7 6 5 5 0 2 1 5 10 9 6 5 4 4 5 4 4 3 2 2 3 3 5 2 5 6 7 4 4 12 11 12 10 6 7
16 15 14 14 13 13 12 11 10 8 6 5 4 3 1 10 3 5 7 6 6 5 1 1 6 4 4 4 2 5 3 2 3 4 5 9 6 2 8 12 12 10 9 7 7
17 17 16 15 14 14 14 12 10 7 5 3 3 1 7 2 3 5 3 3 2 2 3 5 8 8 4 3 3 1 2 0 2 3 3 5 4 2 8 11 9 9 9 9 10
17 17 16 15 14 13 14 13 6 3 4 5 1 0 7 1 2 5 6 5 6 2 2 7 6 4 3 4 3 2 2 2 2 9 6 8 4 7 9 10 8 9 9 9 7
18 17 16 15 13 12 13 1 9 8 4 3 3 2 4 5 4 4 5 5 4 5 4 3 5 4 3 3 3 3 3 2 3 6 7 6 10 5 6 11 11 11 9 8 8
19 18 15 13 9 7 6 3 3 2 2 8 5 3 3 2 4 3 5 7 3 4 5 1 3 7 9 8 4 3 3 4 3 4 5 9 5 6 7 7 8 12 12 12 14
20 17 15 12 8 6 1 4 6 3 5 10 3 6 5 1 4 2 5 6 5 4 4 5 8 5 3 4 5 4 4 4 1 6 3 4 9 8 9 10 10 10 12 13 8
20 18 15 11 6 5 4 8 3 2 2 6 5 5 6 7 6 6 9 5 4 4 4 6 6 5 4 3 5 6 8 3 3 5 2 3 7 5 7 7 6 10 13 10 12
21 18 13 9 4 4 5 2 2 2 5 5 3 6 4 6 3 5 6 6 1 9 5 6 6 5 6 5 9 2 9 6 10 5 3 0 6 6 6 8 7 12 11 14 14
22 18 10 6 2 4 1 5 6 4 3 1 3 1 1 8 3 5 4 5 7 5 7 9 3 3 5 5 6 6 1 5 4 4 2 1 1 8 2 8 12 11 12 14 15
24 17 3 4 2 6 4 2 4 7 1 2 4 5 5 2 2 2 4 4 4 4 2 8 2 3 6 0 5 8 8 8 5 2 2 2 3 7 5 8 6 8 14 14 13
27 17 8 4 2 0 1 4 7 4 3 3 1 3 3 4 2 3 6 7 7 4 4 5 6 5 4 4 3 6 7 4 4 4 7 3 2 11 6 7 9 13 16 15 13
28 2 6 4 3 3 3 6 2 3 4 3 1 0 8 6 4 3 5 5 4 5 3 4 9 10 6 10 11 8 9 8 6 5 4 3 6 8 4 5 7 7 11 10 11
17 1 2 4 6 1 6 4 6 4 3 6 5 3 3 3 3 4 7 8 9 10 9 4 8 5 5 5 11 6 5 6 8 3 3 3 8 9 2 4 3 5 7 12 11
2 2 4 5 2 4 7 4 3 3 3 1 2 1 2 3 1 5 7 5 6 14 7 6 6 4 5 3 1 7 7 3 2 4 3 4 6 7 3 5 3 6 9 8 7
3 5 4 4 3 7 4 5 4 7 5 4 2 4 3 3 7 6 5 5 6 2 10 7 5 16 3 3 5 2 2 6 6 5 6 3 8 7 8 6 8 7 7 9 10
2 4 4 3 6 1 2 1 5 4 5 3 2 4 3 2 4 3 7 6 2 8 10 8 6 8 15 3 3 5 7 5 7 5 1 4 8 4 7 6 7 8 7 6 7
3 2 4 4 4 3 5 4 3 8 6 5 5 2 4 4 2 1 3 3 10 2 7 7 3 2 11 6 2 5 4 5 7 5 6 7 8 2 5 6 8 8 8 7 6
3 3 6 7 2 4 4 4 6 7 1 4 3 3 5 6 4 3 6 5 9 5 5 8 4 9 9 10 4 4 6 5 6 5 7 7 5 5 7 8 6 8 8 8 8
5 1 3 3 4 3 2 4 4 7 5 7 5 4 3 2 4 3 3 8 6 5 5 2 6 5 8 9 5 7 7 10 7 6 8 8 9 9 8 8 7 8 7 7 8
4 4 5 0 3 3 4 3 3 5 3 4 3 8 4 1 3 4 4 4 6 7 6 4 3 4 5 5 7 5 7 9 4 5 2 5 7 6 4 6 6 8 9 7 7
3 2 3 3 3 2 1 3 4 5 5 0 5 4 5 2 6 12 9 9 7 4 3 2 1 1 6 1 1 3 8 8 5 5 9 7 11 6 5 9 8 6 7 10 7
Wind_Direction
2 1 357 354 348 338 330 325 317 306 299 301 305 312 319 319 310 164 237 215 174 161 127 131 184 161 24 79 63 23 64 180 207 164 141 7 42 88 84 114 350 30 132 138 127
358 358 356 351 347 340 331 321 313 304 301 297 302 316 321 327 291 237 244 189 166 154 115 155 182 164 97 83 69 75 68 255 280 160 123 339 5 58 99 197 41 73 89 111 128
354 356 354 353 344 338 329 320 311 301 304 300 307 319 315 321 301 244 190 174 161 172 150 189 127 167 97 89 121 149 196 333 305 133 129 113 328 324 129 225 196 166 143 136 138
350 352 350 346 344 336 327 319 308 304 297 299 306 317 312 288 163 126 156 173 168 171 172 156 134 112 109 189 188 209 335 343 324 181 123 347 318 130 154 228 125 146 148 145 161
345 346 346 341 338 337 328 319 311 302 298 298 302 315 309 274 255 9 138 140 126 150 200 174 133 121 157 153 100 248 264 60 36 50 57 346 346 317 217 105 116 135 153 169 175
342 341 338 338 335 329 329 318 309 298 289 286 292 307 251 238 297 113 123 116 142 146 223 147 171 148 106 107 66 7 97 81 26 334 61 37 316 313 131 130 137 150 165 182 194
338 337 335 337 333 328 325 317 302 291 282 274 275 278 66 232 7 128 123 151 168 173 137 64 124 84 135 102 120 146 78 32 30 11 29 25 331 321 142 143 152 168 170 194 214
332 333 335 335 331 327 323 315 297 275 257 231 228 261 242 262 88 132 157 128 171 264 64 122 102 95 85 108 71 233 121 69 227 153 116 34 260 177 153 146 165 183 185 197 220
329 330 332 332 330 327 324 312 280 176 160 168 124 98 270 336 193 200 157 152 133 94 117 115 67 96 58 97 34 8 268 246 176 191 141 193 244 244 164 174 178 198 197 202 216
326 326 327 330 330 331 328 288 109 114 128 207 260 351 270 232 192 177 162 124 129 110 72 63 57 86 54 91 250 241 222 259 221 211 211 183 260 262 180 178 187 203 206 196 204
323 324 322 318 318 330 351 101 45 356 266 192 193 222 261 266 122 199 140 104 77 91 140 195 98 225 205 202 213 148 187 207 220 190 162 217 244 225 201 199 199 209 206 203 206
321 321 317 313 305 295 207 190 213 186 307 220 233 287 289 2 15 151 126 116 120 186 131 34 242 223 180 191 218 205 205 218 146 143 196 219 246 219 220 222 204 190 205 209 188
322 321 317 313 310 143 206 223 23 47 81 297 185 192 207 141 216 240 135 124 147 156 182 180 216 128 175 181 205 225 218 174 172 121 176 317 281 223 221 214 204 199 201 202 199
323 322 315 328 138 165 233 216 23 129 62 271 260 261 133 152 241 186 158 134 151 189 173 238 267 256 259 220 180 289 230 196 141 114 218 299 279 275 217 213 199 210 197 198 196
325 323 308 224 177 189 74 29 118 69 57 70 171 112 102 152 168 207 190 68 168 180 115 243 218 290 289 238 144 228 313 113 84 89 20 205 80 273 132 234 218 211 209 204 197
328 325 296 138 223 249 344 38 49 44 238 30 127 160 129 242 140 88 120 87 157 168 231 233 235 212 231 128 154 135 71 51 59 86 340 244 163 278 206 218 215 204 205 203 194
331 327 172 171 179 59 320 64 47 125 332 348 145 157 177 179 200 143 155 188 176 130 279 312 220 230 177 116 22 82 70 23 0 0 229 320 151 246 253 229 218 200 203 195 188
331 116 217 226 300 3 82 54 123 242 258 309 13 331 179 155 226 142 119 226 249 93 96 222 312 172 189 188 177 179 151 154 196 207 255 35 242 257 217 284 247 201 204 175 172
324 31 95 269 202 289 77 71 212 206 309 337 338 124 201 216 181 142 198 212 202 166 177 171 270 283 201 159 136 197 195 189 105 348 79 236 287 297 332 19 86 146 155 177 182
23 18 9 351 134 57 74 223 243 227 315 333 281 134 122 181 149 156 192 213 219 189 159 208 291 238 284 128 45 157 161 96 342 146 233 285 281 245 292 244 221 168 174 179 180
35 58 277 345 47 48 135 230 276 250 230 179 241 309 235 230 196 186 221 268 190 205 164 148 136 266 20 254 196 126 216 53 113 122 160 186 263 212 223 209 200 206 201 185 184
21 62 312 14 53 35 124 231 300 322 355 338 56 227 254 231 195 247 219 224 154 155 159 204 159 240 237 227 154 184 198 144 123 221 144 149 270 246 246 204 198 208 211 203 188
59 277 323 61 92 358 320 323 335 358 341 346 5 18 8 360 304 206 312 334 18 185 171 179 211 323 327 356 350 195 197 122 108 90 193 140 257 309 255 213 192 199 211 201 165
62 33 342 42 41 92 13 352 329 342 121 344 4 56 27 18 27 342 340 309 338 0 4 129 162 170 206 226 156 175 174 179 126 128 168 224 253 264 247 212 188 190 200 190 171
27 49 173 358 0 25 21 2 348 355 358 7 10 28 307 0 2 351 328 317 313 5 14 135 215 183 245 244 242 211 179 170 185 175 156 216 193 247 217 222 217 198 176 167 158
69 32 358 109 308 5 356 17 349 341 291 335 35 320 293 172 68 299 9 244 251 322 360 2 265 178 278 266 211 256 213 177 162 145 131 145 242 217 185 151 180 197 180 173 177
345 0 101 312 357 58 280 344 317 349 274 76 348 327 305 334 307 267 222 251 250 277 287 340 71 305 241 348 179 309 225 188 183 177 151 161 219 159 192 182 189 187 201 182 170